When you browse on this site, cookies collect data to enhance your experience and personalize the content and advertising you see.
Visit our Privacy Policy to learn more. By continuing to use the site, you agree to this use of cookies and data.
  • In Switzerland
  • List of Countries
  • For 7 days
  • Water Temperature
  • Weather Map
  • Weather Widgets
  • user-avatar
    Login

    Hourly Weather Nashavar

    Today, 14 October, Monday

    Time Temperature Precipitation Wind Pressure Humidity
    00:00 +27°C° 0 mm 1 mps 730 mmHg 48%
    01:00 +26°C° 0 mm 1 mps 730 mmHg 50%
    02:00 +26°C° 0 mm 1 mps 730 mmHg 51%
    03:00 +23°C° 0 mm 0 mps 730 mmHg 52%
    04:00 +23°C° 0 mm 0 mps 730 mmHg 52%
    05:00 +23°C° 0 mm 0 mps 730 mmHg 53%
    06:00 +23°C° 0 mm 0 mps 730 mmHg 50%
    07:00 +26°C° 0 mm 1 mps 730 mmHg 47%
    08:00 +27°C° 0 mm 1 mps 731 mmHg 44%
    09:00 +28°C° 0 mm 1 mps 731 mmHg 41%
    10:00 +30°C° 0 mm 1 mps 731 mmHg 38%
    11:00 +31°C° 0 mm 1 mps 731 mmHg 34%
    12:00 +32°C° 0 mm 1 mps 730 mmHg 31%
    13:00 +33°C° 0 mm 1 mps 730 mmHg 28%
    14:00 +34°C° 0 mm 1 mps 729 mmHg 24%
    15:00 +34°C° 0 mm 1 mps 729 mmHg 26%
    16:00 +34°C° 0 mm 2 mps 729 mmHg 27%
    17:00 +34°C° 0 mm 2 mps 729 mmHg 28%
    18:00 +32°C° 0 mm 2 mps 729 mmHg 32%
    19:00 +30°C° 0 mm 2 mps 730 mmHg 36%
    20:00 +29°C° 0 mm 1 mps 730 mmHg 40%
    21:00 +28°C° 0 mm 1 mps 730 mmHg 42%
    22:00 +28°C° 0 mm 1 mps 730 mmHg 44%
    23:00 +27°C° 0 mm 1 mps 730 mmHg 46%

    Tomorrow, 15 October, Tuesday

    Time Temperature Precipitation Wind Pressure Humidity
    00:00 +27°C° 0 mm 1 mps 730 mmHg 48%
    01:00 +24°C° 0 mm 0 mps 730 mmHg 49%
    02:00 +24°C° 0 mm 0 mps 730 mmHg 51%
    03:00 +23°C° 0 mm 0 mps 730 mmHg 51%
    04:00 +23°C° 0 mm 0 mps 730 mmHg 51%
    05:00 +23°C° 0 mm 0 mps 730 mmHg 50%
    06:00 +24°C° 0 mm 0 mps 730 mmHg 47%
    07:00 +27°C° 0 mm 1 mps 731 mmHg 45%
    08:00 +27°C° 0 mm 1 mps 731 mmHg 42%
    09:00 +29°C° 0 mm 1 mps 731 mmHg 38%
    10:00 +30°C° 0 mm 1 mps 731 mmHg 34%
    11:00 +31°C° 0 mm 1 mps 732 mmHg 30%
    12:00 +32°C° 0 mm 1 mps 731 mmHg 27%
    13:00 +33°C° 0 mm 1 mps 731 mmHg 24%
    14:00 +34°C° 0 mm 1 mps 731 mmHg 21%
    15:00 +34°C° 0 mm 1 mps 731 mmHg 23%
    16:00 +34°C° 0 mm 2 mps 731 mmHg 24%
    17:00 +34°C° 0 mm 2 mps 730 mmHg 26%
    18:00 +32°C° 0 mm 2 mps 731 mmHg 30%
    19:00 +30°C° 0 mm 1 mps 731 mmHg 34%
    20:00 +29°C° 0 mm 1 mps 731 mmHg 38%
    21:00 +28°C° 0 mm 1 mps 731 mmHg 40%
    22:00 +28°C° 0 mm 1 mps 731 mmHg 41%
    23:00 +27°C° 0 mm 1 mps 731 mmHg 43%

    Day after tomorrow, 16 October, Wednesday

    Time Temperature Precipitation Wind Pressure Humidity
    00:00 +27°C° 0 mm 1 mps 731 mmHg 45%
    01:00 +24°C° 0 mm 0 mps 731 mmHg 47%
    02:00 +24°C° 0 mm 0 mps 731 mmHg 48%
    03:00 +23°C° 0 mm 0 mps 730 mmHg 49%
    04:00 +23°C° 0 mm 0 mps 730 mmHg 50%
    05:00 +23°C° 0 mm 0 mps 730 mmHg 50%
    06:00 +23°C° 0 mm 0 mps 731 mmHg 47%
    07:00 +24°C° 0 mm 0 mps 731 mmHg 44%
    08:00 +27°C° 0 mm 1 mps 731 mmHg 42%
    09:00 +28°C° 0 mm 1 mps 731 mmHg 39%
    10:00 +30°C° 0 mm 1 mps 731 mmHg 36%
    11:00 +31°C° 0 mm 1 mps 732 mmHg 34%
    12:00 +32°C° 0 mm 1 mps 731 mmHg 32%
    13:00 +32°C° 0 mm 1 mps 731 mmHg 29%
    14:00 +33°C° 0 mm 1 mps 730 mmHg 27%
    15:00 +34°C° 0 mm 2 mps 730 mmHg 29%
    16:00 +34°C° 0 mm 2 mps 730 mmHg 30%
    17:00 +32°C° 0 mm 2 mps 730 mmHg 31%
    18:00 +31°C° 0 mm 1 mps 730 mmHg 34%
    19:00 +30°C° 0 mm 1 mps 730 mmHg 38%
    20:00 +29°C° 0 mm 1 mps 730 mmHg 41%
    21:00 +28°C° 0 mm 1 mps 730 mmHg 43%
    22:00 +27°C° 0 mm 1 mps 730 mmHg 44%
    23:00 +25°C° 0 mm 0 mps 730 mmHg 46%

    17 October, Thursday

    Time Temperature Precipitation Wind Pressure Humidity
    00:00 +24°C° 0 mm 0 mps 730 mmHg 47%
    01:00 +24°C° 0 mm 0 mps 730 mmHg 48%
    02:00 +24°C° 0 mm 0 mps 730 mmHg 48%
    03:00 +23°C° 0 mm 0 mps 730 mmHg 49%
    04:00 +23°C° 0 mm 0 mps 730 mmHg 50%
    05:00 +22°C° 0 mm 0 mps 730 mmHg 51%
    06:00 +23°C° 0 mm 0 mps 730 mmHg 47%
    07:00 +24°C° 0 mm 0 mps 731 mmHg 44%
    08:00 +25°C° 0 mm 0 mps 731 mmHg 41%
    09:00 +28°C° 0 mm 1 mps 731 mmHg 38%
    10:00 +29°C° 0 mm 1 mps 731 mmHg 35%
    11:00 +31°C° 0 mm 1 mps 731 mmHg 33%
    12:00 +31°C° 0 mm 1 mps 731 mmHg 31%
    13:00 +32°C° 0 mm 2 mps 731 mmHg 29%
    14:00 +34°C° 0 mm 2 mps 730 mmHg 27%
    15:00 +34°C° 0 mm 2 mps 730 mmHg 28%
    16:00 +32°C° 0 mm 2 mps 730 mmHg 29%
    17:00 +32°C° 0 mm 2 mps 729 mmHg 30%
    18:00 +31°C° 0 mm 2 mps 730 mmHg 33%
    19:00 +30°C° 0 mm 1 mps 730 mmHg 36%
    20:00 +28°C° 0 mm 1 mps 730 mmHg 39%
    21:00 +28°C° 0 mm 1 mps 730 mmHg 41%
    22:00 +27°C° 0 mm 1 mps 730 mmHg 42%
    23:00 +25°C° 0 mm 0 mps 731 mmHg 44%

    18 October, Friday

    Time Temperature Precipitation Wind Pressure Humidity
    00:00 +24°C° 0.1 mm 0 mps 730 mmHg 45%
    01:00 +26°C° 0.1 mm 1 mps 730 mmHg 47%
    02:00 +25°C° 0.1 mm 1 mps 730 mmHg 48%
    03:00 +25°C° 0.6 mm 1 mps 730 mmHg 51%
    04:00 +24°C° 0.6 mm 1 mps 730 mmHg 54%
    05:00 +24°C° 0.6 mm 1 mps 730 mmHg 57%
    06:00 +24°C° 0 mm 1 mps 730 mmHg 54%
    07:00 +25°C° 0 mm 1 mps 731 mmHg 51%
    08:00 +26°C° 0 mm 1 mps 731 mmHg 48%
    09:00 +27°C° 0.3 mm 1 mps 732 mmHg 45%
    10:00 +28°C° 0.3 mm 1 mps 732 mmHg 42%
    11:00 +28°C° 0.3 mm 1 mps 732 mmHg 40%
    12:00 +29°C° 0.2 mm 1 mps 732 mmHg 38%
    13:00 +29°C° 0.2 mm 1 mps 732 mmHg 36%
    14:00 +30°C° 0.2 mm 1 mps 731 mmHg 35%
    15:00 +30°C° 0 mm 1 mps 731 mmHg 36%
    16:00 +29°C° 0 mm 1 mps 731 mmHg 38%
    17:00 +29°C° 0 mm 1 mps 731 mmHg 39%
    18:00 +28°C° 0 mm 1 mps 731 mmHg 41%
    19:00 +27°C° 0 mm 2 mps 731 mmHg 42%
    20:00 +26°C° 0 mm 2 mps 731 mmHg 44%
    21:00 +25°C° 0 mm 2 mps 732 mmHg 47%
    22:00 +25°C° 0 mm 2 mps 732 mmHg 49%
    23:00 +24°C° 0 mm 2 mps 732 mmHg 51%

    19 October, Saturday

    Time Temperature Precipitation Wind Pressure Humidity
    00:00 +24°C° 0.2 mm 1 mps 732 mmHg 53%
    01:00 +23°C° 0.2 mm 1 mps 732 mmHg 56%
    02:00 +23°C° 0.2 mm 1 mps 732 mmHg 58%
    03:00 +23°C° 0.2 mm 1 mps 732 mmHg 59%
    04:00 +20°C° 0.2 mm 0 mps 732 mmHg 60%
    05:00 +20°C° 0.2 mm 0 mps 732 mmHg 61%
    06:00 +21°C° 0.1 mm 0 mps 733 mmHg 59%
    07:00 +21°C° 0.1 mm 0 mps 733 mmHg 56%
    08:00 +22°C° 0.1 mm 0 mps 734 mmHg 53%
    09:00 +23°C° 0 mm 0 mps 734 mmHg 49%
    10:00 +26°C° 0 mm 1 mps 734 mmHg 44%
    11:00 +27°C° 0 mm 1 mps 734 mmHg 40%
    12:00 +28°C° 0 mm 1 mps 734 mmHg 37%
    13:00 +29°C° 0 mm 1 mps 733 mmHg 35%
    14:00 +30°C° 0 mm 1 mps 733 mmHg 33%
    15:00 +30°C° 0 mm 1 mps 732 mmHg 34%
    16:00 +29°C° 0 mm 1 mps 732 mmHg 35%
    17:00 +29°C° 0 mm 2 mps 732 mmHg 36%
    18:00 +28°C° 0 mm 1 mps 732 mmHg 39%
    19:00 +27°C° 0 mm 1 mps 732 mmHg 43%
    20:00 +26°C° 0 mm 1 mps 732 mmHg 46%
    21:00 +26°C° 0 mm 1 mps 732 mmHg 47%
    22:00 +24°C° 0 mm 0 mps 732 mmHg 48%
    23:00 +23°C° 0 mm 0 mps 732 mmHg 49%
    Show more